KRUUNUPYY current weather conditions

sailwx.info

Wind from 210 at 6 knots

Air temperature 1.0° C
Visibility: greater than 5.4 NM
Dewpoint -2.0° C

Last reported at 2019-Dec-06 01:50 UTC.
Time now 2019-Dec-06 03:45 UTC

Location: N 63°43' E 023°09'.
View on Google Maps.

See reports from other nearby stations

  
Tides and Currents Weather Stations Pressure Air Temp Water Temp Dewpoint Dewpoint Depression Visibility Wind Speed Wind Dir Waves Ship Positions
date/time (UTC)wind fromknots sea level pressurealtimeterstation pressurevisibilityair tempwater tempwave heightnotes
2019-Dec-06 01:50 210 6 5.4 1.0
2019-Dec-06 01:20 210 6 5.4 1.0
2019-Dec-06 00:50 210 7 5.4 1.0
2019-Dec-06 00:20 200 7 5.4 1.0
2019-Dec-05 23:50 210 8 5.4 1.0
2019-Dec-05 23:20 210 6 5.4 1.0
2019-Dec-05 22:50 210 8 5.4 2.0
2019-Dec-05 22:20 230 7 5.4 3.0
2019-Dec-05 21:50 230 8 5.4 3.0
2019-Dec-05 21:20 230 11 gusting 20 5.4 3.0
2019-Dec-05 20:50 220 9 5.4 3.0
2019-Dec-05 20:20 210 12 5.4 4.0
2019-Dec-05 19:50 210 13 5.4 4.0
2019-Dec-05 19:20 210 13 5.4 3.0
2019-Dec-05 18:50 210 13 5.4 3.0
2019-Dec-05 18:20 210 13 5.4 3.0
2019-Dec-05 17:50 200 12 5.4 3.0
2019-Dec-05 17:20 200 11 5.4 3.0
2019-Dec-05 16:50 200 8 5.4 2.0
2019-Dec-05 16:20 200 11 5.4 3.0
2019-Dec-05 15:50 200 12 5.4 3.0
2019-Dec-05 15:20 210 12 5.4 3.0
2019-Dec-05 14:50 200 12 5.4 3.0
2019-Dec-05 14:20 200 9 5.4 3.0
2019-Dec-05 13:50 200 8 5.4 3.0
2019-Dec-05 13:20 200 8 5.4 3.0
2019-Dec-05 12:50 190 11 5.4 3.0
2019-Dec-05 12:20 190 12 5.4 3.0
2019-Dec-05 11:50 180 11 5.4 3.0
2019-Dec-05 11:20 190 6 5.4 2.0
2019-Dec-05 10:50 190 7 5.4 2.0
2019-Dec-05 10:20 190 6 5.4 2.0
2019-Dec-05 09:50 190 7 5.4 3.0
2019-Dec-05 09:20 180 6 5.4 3.0
2019-Dec-05 08:50 180 6 5.4 3.0
2019-Dec-05 08:20 200 7 5.4 2.0
2019-Dec-05 07:50 210 6 5.4 3.0
2019-Dec-05 07:20 220 8 5.4 3.0
2019-Dec-05 06:50 210 8 5.4 3.0
2019-Dec-05 06:20 220 9 5.4 3.0
2019-Dec-05 05:50 210 9 5.4 3.0 Light rain showers.
2019-Dec-05 05:20 210 8 5.4 3.0
2019-Dec-05 04:50 220 8 5.4 3.0
2019-Dec-05 04:20 210 8 5.4 3.0
2019-Dec-05 03:50 210 9 5.4 3.0
2019-Dec-05 03:20 210 11 5.4 3.0
2019-Dec-05 02:50 210 12 5.4 3.0
2019-Dec-05 02:20 200 11 5.4 3.0
2019-Dec-05 01:50 200 11 5.4 3.0
2019-Dec-05 01:20 190 12 5.4 3.0
2019-Dec-05 00:50 190 13 5.4 3.0
2019-Dec-05 00:20 200 9 5.4 3.0
2019-Dec-04 23:50 200 13 5.4 4.0
2019-Dec-04 23:20 170 9 5.4 3.0
2019-Dec-04 22:50 150 8 5.4 3.0
2019-Dec-04 22:20 170 6 5.4 3.0
2019-Dec-04 21:50 150 6 5.4 3.0
2019-Dec-04 21:20 190 6 5.4 3.0
2019-Dec-04 20:50 200 8 5.4 4.0
2019-Dec-04 20:20 210 8 5.4 5.0
2019-Dec-04 19:50 220 7 5.4 5.0
2019-Dec-04 19:20 210 7 5.4 5.0
2019-Dec-04 18:50 230 8 5.4 5.0
2019-Dec-04 18:20 240 8 5.4 5.0
2019-Dec-04 17:50 240 7 5.4 5.0
2019-Dec-04 17:20 240 6 5.4 5.0
2019-Dec-04 16:50 240 6 5.4 5.0
2019-Dec-04 16:20 250 9 5.4 5.0
2019-Dec-04 15:50 240 7 5.4 5.0
2019-Dec-04 15:20 240 8 5.4 5.0
2019-Dec-04 14:50 230 7 5.4 5.0
2019-Dec-04 14:20 250 7 5.4 5.0
2019-Dec-04 13:50 240 9 5.4 5.0
2019-Dec-04 13:20 240 9 5.4 5.0
2019-Dec-04 12:50 250 9 5.4 5.0
2019-Dec-04 12:20 250 11 5.4 6.0
2019-Dec-04 11:50 250 8 5.4 5.0
2019-Dec-04 11:20 250 8 gusting 19 5.4 6.0
2019-Dec-04 10:50 240 6 5.4 5.0
2019-Dec-04 10:20 250 8 5.4 5.0
2019-Dec-04 09:50 260 7 5.4 6.0
2019-Dec-04 09:20 250 6 5.4 5.0
2019-Dec-04 08:50 250 8 5.4 6.0
2019-Dec-04 08:20 250 7 5.4 5.0
2019-Dec-04 07:50 250 8 5.4 5.0
2019-Dec-04 07:20 260 6 5.4 5.0
2019-Dec-04 06:50 260 7 5.4 5.0
2019-Dec-04 06:20 260 8 5.4 5.0
2019-Dec-04 05:50 260 7 5.4 4.0
2019-Dec-04 05:20 250 9 5.4 4.0
2019-Dec-04 04:50 250 8 5.4 4.0
2019-Dec-04 04:20 240 7 5.4 4.0
2019-Dec-04 03:50 230 7 5.4 3.0 Light rain showers.
2019-Dec-04 03:20 230 6 5.4 3.0 Light rain.